EW2046 Weather Reports


Display with metric or nautical units.
time (UTC)temp
F
wind
direction
speed
MPH
gust
MPH
rain 1hr
in
rain 24hr
in
rain mn
in
humidity
%
barometer
mb
20260507024514 65 217 0.0 3.0 0.00 0.00 0.00 72 1014.8
20260507023013 66 205 0.0 3.0 0.00 0.00 0.00 69 1014.7
20260507021518 67 217 0.0 3.0 0.00 0.00 0.00 67 1014.7
20260507020013 68 189 0.0 1.0 0.00 0.00 0.00 65 1014.8
20260507014510 69 200 0.0 4.0 0.00 0.00 0.00 63 1014.9
20260507013009 70 211 0.0 4.0 0.00 0.00 0.00 57 1014.9
20260507011509 72 189 1.0 4.0 0.00 0.00 0.00 56 1015.0
20260507010008 72 162 1.0 3.0 0.00 0.00 0.00 55 1014.9
20260507004507 72 206 2.0 5.0 0.00 0.00 0.00 54 1015.1
20260507003005 72 200 1.0 4.0 0.00 0.00 0.00 55 1015.2
20260507001510 72 172 2.0 5.0 0.00 0.00 0.00 56 1015.2
20260507000011 73 187 2.0 6.0 0.00 0.00 0.00 56 1015.1
20260506234507 74 225 1.0 4.0 0.00 0.00 0.00 54 1015.3
20260506233001 73 219 1.0 5.0 0.00 0.00 0.00 55 1015.3
20260506231559 73 166 2.0 7.0 0.00 0.00 0.00 53 1015.5
20260506230056 73 214 1.0 5.0 0.00 0.00 0.00 53 1015.7
20260506224603 73 193 2.0 7.0 0.00 0.00 0.00 53 1016.0
20260506223051 72 304 1.0 6.0 0.00 0.00 0.00 54 1016.3
20260506221553 73 129 2.0 6.0 0.00 0.00 0.00 54 1016.5
20260506220048 72 268 1.0 4.0 0.00 0.00 0.00 55 1016.8
20260506214606 72 156 2.0 6.0 0.00 0.00 0.00 55 1017.0
20260506213046 72 185 1.0 8.0 0.00 0.00 0.00 57 1017.1
20260506211544 72 124 2.0 9.0 0.00 0.00 0.00 58 1017.3
20260506210042 71 201 1.0 5.0 0.00 0.00 0.00 59 1017.3
20260506204539 70 192 2.0 7.0 0.00 0.00 0.00 62 1017.3
20260506203036 70 194 3.0 5.0 0.00 0.00 0.00 61 1017.4
20260506201535 69 162 2.0 6.0 0.00 0.00 0.00 63 1017.6
20260506200035 68 153 2.0 6.0 0.00 0.00 0.00 63 1017.7
20260506194533 69 213 1.0 7.0 0.00 0.00 0.00 60 1017.7
20260506193034 70 224 2.0 5.0 0.00 0.00 0.00 59 1017.8
20260506191535 70 171 1.0 4.0 0.00 0.00 0.00 61 1017.8
20260506190030 69 172 2.0 6.0 0.00 0.00 0.00 61 1017.9
20260506184531 69 288 1.0 6.0 0.00 0.00 0.00 62 1018.0
20260506183025 69 251 1.0 7.0 0.00 0.00 0.00 63 1018.1
20260506181525 68 194 3.0 6.0 0.00 0.00 0.00 64 1018.3
20260506180026 68 213 2.0 6.0 0.00 0.00 0.00 65 1018.3
20260506174520 67 166 2.0 6.0 0.00 0.00 0.00 66 1018.3
20260506173018 67 177 1.0 5.0 0.00 0.00 0.00 68 1018.2
20260506171518 66 227 1.0 7.0 0.00 0.00 0.00 68 1018.3
20260506170016 66 126 1.0 5.0 0.00 0.00 0.00 68 1018.2
20260506164517 65 113 0.0 3.0 0.00 0.00 0.00 70 1018.1
20260506163009 63 38 1.0 4.0 0.00 0.00 0.00 73 1018.1
20260506161503 62 155 1.0 4.0 0.00 0.00 0.00 78 1018.1
20260506160059 60 175 0.0 3.0 0.00 0.00 0.00 83 1018.0
20260506154612 59 184 0.0 2.0 0.00 0.00 0.00 88 1018.0
20260506153053 57 186 0.0 2.0 0.00 0.00 0.00 91 1018.0
20260506151551 54 234 0.0 0.0 0.00 0.00 0.00 93 1017.9
20260506150052 53 77 0.0 0.0 0.00 0.00 0.00 92 1018.1
20260506144559 52 77 0.0 0.0 0.00 0.00 0.00 92 1017.9
20260506143048 51 77 0.0 0.0 0.00 0.00 0.00 92 1017.8
20260506141547 50 77 0.0 0.0 0.00 0.00 0.00 91 1017.8
20260506140057 50 77 0.0 0.0 0.00 0.00 0.00 91 1017.7
20260506134543 49 77 0.0 0.0 0.00 0.00 0.00 91 1017.5
20260506133047 49 77 0.0 0.0 0.00 0.00 0.00 90 1017.4
20260506131541 49 78 0.0 0.0 0.00 0.00 0.00 90 1017.2
20260506130042 49 78 0.0 0.0 0.00 0.00 0.00 90 1017.2
20260506124538 49 78 0.0 0.0 0.00 0.00 0.00 89 1017.1
20260506123036 49 78 0.0 0.0 0.00 0.00 0.00 89 1017.1
20260506121535 50 78 0.0 0.0 0.00 0.00 0.00 89 1017.0
20260506120038 50 78 0.0 0.0 0.00 0.00 0.00 88 1017.1
20260506114532 50 78 0.0 0.0 0.00 0.00 0.00 88 1017.0
20260506113030 50 78 0.0 0.0 0.00 0.00 0.00 87 1017.1
20260506111528 51 78 0.0 0.0 0.00 0.00 0.00 87 1017.0
20260506110026 51 78 0.0 0.0 0.00 0.00 0.00 86 1016.8
20260506104524 51 108 0.0 0.0 0.00 0.00 0.00 86 1016.7
20260506103027 52 108 0.0 0.0 0.00 0.00 0.00 85 1016.7
20260506101528 52 108 0.0 0.0 0.00 0.00 0.00 85 1016.6
20260506100029 53 108 0.0 0.0 0.00 0.00 0.00 84 1016.5
20260506094519 54 108 0.0 0.0 0.00 0.00 0.00 84 1016.6
20260506093017 54 108 0.0 0.0 0.00 0.00 0.00 83 1016.5
20260506091512 55 108 0.0 0.0 0.00 0.00 0.00 82 1016.6
20260506090010 55 108 0.0 0.0 0.00 0.00 0.00 81 1016.6
20260506084510 56 108 0.0 0.0 0.00 0.00 0.00 81 1016.8
20260506083009 56 109 0.0 0.0 0.00 0.00 0.00 80 1016.9
20260506081504 56 109 0.0 0.0 0.00 0.00 0.00 79 1016.9
20260506073058 58 119 0.0 1.0 0.00 0.00 0.00 77 1016.6
20260506071558 58 37 0.0 1.0 0.00 0.00 0.00 76 1016.6
20260506061555 59 63 1.0 8.0 0.00 0.00 0.00 73 1016.0
20260506044548 62 333 1.0 4.0 0.00 0.00 0.00 66 1015.2
20260506043042 62 93 1.0 9.0 0.00 0.00 0.00 65 1015.1
20260506041541 63 40 2.0 6.0 0.00 0.00 0.00 65 1014.8
20260506040041 63 140 0.0 7.0 0.00 0.00 0.00 64 1014.3
20260506034536 63 30 3.0 6.0 0.00 0.00 0.00 63 1014.2
20260506033040 64 11 3.0 9.0 0.00 0.00 0.00 63 1013.9
20260506031636 64 258 2.0 9.0 0.00 0.00 0.00 62 1013.7
20260506030035 65 5 3.0 8.0 0.00 0.00 0.00 60 1013.3